Regional Weather Roundup
Issued by NWS

Home | Current Version | Previous Version | Text Only | Print | Product List | Glossary Off
Versions: 1 2 3 4 5 6 7 8 9 10 11 12 13 14 15 16 17 18 19 20 21 22 23 24 25 26 27 28

000
ASUS45 KCYS 151010
RWRWY

WYOMING REGIONAL WEATHER ROUNDUP
NATIONAL WEATHER SERVICE CHEYENNE WY
300 AM MST SUN JAN 15 2017

NOTE:  "FAIR" INDICATES FEW OR NO CLOUDS BELOW 12,000 FEET
WITH NO SIGNIFICANT WEATHER AND/OR OBSTRUCTIONS TO VISIBILITY.

WYZ001-151100-
YELLOWSTONE NATIONAL PARK

CITY           SKY/WX    TMP DP  RH WIND       PRES   REMARKS
LK YELLOWSTONE   N/A    -19 -23  81 CALM      30.21S
W YELLOWSTONE  NOT AVBL

$$
WYZ002>013-054>058-071-098>099-151100-
NORTHERN WYOMING

CITY           SKY/WX    TMP DP  RH WIND       PRES   REMARKS
JACKSON        FAIR     -11 -15  84 NE3       30.27F
CODY           FAIR       9  -3  58 N5        30.13F WCI   1
GREYBULL       FAIR     -19 -24  77 CALM      30.24S
WORLAND        FAIR     -14 -17  87 CALM      30.20S
SHERIDAN       FAIR       0  -8  69 VRB6      30.12F WCI -12
BUFFALO        FAIR      25  -5  26 W10       30.12S WCI  15
GILLETTE       FAIR       4   0  83 CALM      30.13F
HULETT         FAIR      14   3  62 SW9       30.14F WCI   2
NEWCASTLE      FAIR      14   9  79 NE3       30.18F

$$
WYZ014>020-022>026-101>103-151100-
CENTRAL WYOMING

CITY           SKY/WX    TMP DP  RH WIND       PRES   REMARKS
BIG PINEY      FAIR     -10 -12  91 CALM      30.21R FOG
PINEDALE       FAIR      -9 -15  77 E13       30.22R WCI -30
DUBOIS         NOT AVBL
LANDER         FAIR       4   1  88 NW6       30.17F WCI  -7
RIVERTON       FAIR      -2  -5  87 SW7       30.20S WCI -15
CASPER         FAIR      22  17  81 SW8       30.16S WCI  12
DOUGLAS        FAIR      12   9  87 CALM      30.18R

$$
WYZ021-027>030-104>119-151100-
SOUTHERN WYOMING

CITY           SKY/WX    TMP DP  RH WIND       PRES   REMARKS
EVANSTON       FAIR       5   0  79 E5        30.16S WCI  -4
ROCK SPRINGS   FOG       11   8  88 CALM      30.18F VSB 1/4
RAWLINS        FOG       21  18  88 E5        30.17F VSB 1/4 WCI  15
LARAMIE        FOG       18  14  84 CALM      30.13F VSB 1/4
CHEYENNE       MOCLDY    26  20  77 NW5       30.12F WCI  20
TORRINGTON     FAIR      21  19  92 NW3       30.18S

$$




USA.gov is the U.S. government's official web portal to all federal, state and local government web resources and services.